Wind_Speed
10 10 10 10 10 9 9 9 9 8 8 8 8 8 9 9 8 8 7 7 7 7 6 6 6 6 6 6 6 6 6 6 6 5 5 5 5 5 5 5 5 5
10 10 10 10 10 10 10 9 9 9 9 9 9 9 9 9 9 8 8 8 7 7 7 6 6 6 6 6 6 6 6 6 6 6 6 6 5 6 6 6 5 5
11 11 11 11 10 10 10 9 9 9 9 9 9 9 9 9 8 8 8 7 7 7 7 7 7 7 7 7 7 6 6 6 6 6 6 6 6 6 6 6 6 6
12 12 12 11 11 11 10 10 10 10 10 10 10 10 9 9 9 8 8 8 8 7 7 7 7 7 7 7 7 7 7 7 7 6 7 7 7 7 7 6 6 6
14 13 13 12 12 11 12 11 11 11 11 10 10 10 10 9 9 9 9 8 8 8 8 8 8 8 7 8 7 7 8 8 7 7 7 7 7 7 7 7 7 6
15 15 14 14 14 13 13 13 12 12 12 12 11 11 11 11 10 10 10 9 9 9 9 8 8 8 8 8 8 8 8 8 8 8 8 7 8 8 8 8 7 7
17 17 16 16 16 15 15 14 14 14 14 13 13 13 13 13 12 12 12 11 11 10 10 10 10 10 10 10 10 9 9 9 9 9 8 8 9 9 9 9 8 9
18 18 18 17 17 17 17 16 16 16 15 15 15 14 14 14 14 14 14 14 13 13 13 13 13 13 12 12 12 12 11 11 11 10 10 10 10 10 10 10 10 10
20 19 19 19 19 18 18 18 18 17 16 16 15 15 15 15 15 15 15 15 15 15 15 15 15 15 15 15 14 14 14 14 13 13 12 12 12 12 11 11 11 11
22 20 19 20 20 20 20 20 19 19 18 18 17 16 16 15 15 16 16 16 16 16 16 17 17 17 17 16 16 16 16 16 15 15 15 14 14 13 13 12 12 12
24 23 21 21 21 21 21 21 21 21 20 19 19 18 18 17 16 16 16 16 16 16 16 17 17 18 18 18 18 17 17 16 16 16 16 16 15 15 14 14 14 13
24 22 20 20 20 21 22 23 23 22 22 22 21 20 20 18 17 18 17 17 17 17 17 17 18 18 19 19 19 18 18 17 17 16 16 16 16 16 15 15 15 15
25 23 20 21 22 22 23 23 22 22 23 24 24 23 21 20 19 19 19 19 18 18 18 18 18 18 19 19 20 19 19 18 18 17 17 17 17 17 17 16 16 16
27 27 24 23 24 25 25 24 24 24 25 26 26 24 22 21 22 22 21 21 21 20 19 19 18 18 18 19 19 20 19 19 19 19 19 18 18 18 18 18 18 18
29 29 27 25 25 26 26 26 26 26 27 27 25 24 23 23 24 24 23 22 23 23 21 21 20 18 18 19 19 20 19 20 20 20 21 20 20 20 20 20 20 18
30 30 29 27 27 27 28 28 27 27 28 27 24 24 25 26 26 26 25 24 24 25 24 22 20 19 20 21 21 20 20 21 21 21 22 22 20 21 22 23 22 19
31 32 31 30 30 30 31 31 30 30 30 29 26 25 26 27 27 26 27 27 26 26 24 22 22 23 23 23 22 22 22 24 23 23 24 23 22 23 24 25 24 22
33 33 33 33 33 33 34 33 32 33 32 29 28 28 28 29 28 27 28 28 28 27 26 23 23 25 25 24 25 25 25 25 25 25 25 25 25 26 25 25 25 25
35 35 36 36 36 35 36 35 34 34 33 31 30 30 31 30 30 29 29 29 29 30 29 27 26 27 26 27 28 28 28 27 26 27 27 26 27 28 27 27 27 27
38 38 38 38 38 38 37 36 35 35 35 34 32 33 33 31 31 31 30 31 31 31 32 31 30 29 29 29 30 30 30 30 29 29 28 28 29 30 29 30 30 29
41 40 41 39 39 40 39 37 37 37 37 37 36 36 34 32 32 32 32 33 33 34 34 34 32 31 31 31 31 32 32 33 33 32 31 30 31 32 32 32 32 32
45 42 41 39 39 40 40 40 40 38 38 38 38 38 37 34 33 33 35 36 36 37 37 36 33 32 32 32 32 33 34 34 34 34 33 33 34 35 35 34 34 34
43 40 39 39 39 40 40 40 41 39 38 38 39 39 39 36 34 35 35 37 39 40 40 38 35 34 35 35 35 35 36 37 37 37 38 38 38 37 37 37 37 37
34 36 36 35 34 35 36 38 41 42 41 40 40 40 40 38 36 35 34 35 37 40 41 40 39 39 39 39 39 39 38 39 40 40 40 40 40 40 40 39 39 39
22 25 24 22 20 20 23 27 33 39 43 44 43 40 39 38 36 34 33 32 35 39 43 42 42 43 43 43 44 44 44 44 44 44 44 43 42 43 43 43 42 41
21 20 18 17 14 13 14 16 20 26 33 39 41 41 40 39 36 33 31 31 33 36 40 42 43 46 47 47 48 48 47 48 48 48 48 48 47 48 48 48 46 44
Wind_Direction
221 220 221 221 220 217 211 209 207 205 204 199 200 204 205 207 207 206 206 203 202 202 201 204 204 203 203 203 201 198 195 193 194 199 207 213 217 218 224 232 238 241
227 226 226 225 225 225 221 217 215 212 212 210 207 209 210 212 211 210 210 209 207 208 208 212 216 217 219 219 216 214 212 210 205 205 210 214 217 220 221 226 230 231
230 230 231 230 229 230 229 226 223 220 219 219 219 219 220 219 220 218 217 217 217 218 218 219 223 227 229 231 229 225 223 224 221 215 212 214 219 221 219 218 221 224
233 233 233 235 234 234 236 234 232 229 227 227 226 227 229 228 228 227 225 225 225 226 227 227 228 231 233 235 235 232 228 228 229 227 219 216 219 219 216 216 218 226
235 235 234 236 237 238 240 240 239 240 237 237 236 236 236 235 235 236 235 234 233 234 236 237 238 238 239 240 238 235 231 229 230 230 224 220 221 221 220 223 228 237
238 239 237 236 237 239 242 243 245 246 246 246 247 247 249 247 246 246 246 246 244 244 245 246 248 249 248 247 245 242 237 234 233 231 226 223 223 224 227 231 239 251
239 241 241 240 239 240 242 244 246 248 249 250 251 251 252 254 255 254 254 255 254 253 253 253 253 254 254 254 254 253 250 244 240 238 233 233 233 235 238 243 251 259
235 237 239 241 241 241 242 244 246 248 250 251 253 254 253 255 257 258 258 259 258 257 255 254 254 254 255 256 257 258 257 256 253 251 247 246 248 250 253 257 262 265
231 232 235 238 240 243 244 244 245 247 250 251 252 254 255 255 256 257 259 258 258 258 256 255 254 254 254 255 256 258 259 259 259 259 258 257 257 260 262 263 264 265
235 232 232 235 238 242 245 246 246 247 249 251 253 254 254 255 255 255 255 256 257 256 256 256 255 254 254 254 254 257 259 260 261 262 263 263 262 262 263 263 263 264
239 237 235 236 238 240 242 244 246 248 249 250 252 253 253 253 254 254 253 254 256 256 255 256 255 254 254 254 254 256 257 260 261 263 265 266 266 264 264 264 263 264
233 233 236 240 242 243 245 246 247 246 248 251 251 252 254 253 254 256 255 253 254 255 255 253 253 254 254 254 254 255 257 259 259 260 262 263 265 266 266 266 265 266
229 231 240 244 241 241 243 244 244 244 247 250 249 249 252 255 255 256 256 255 252 252 253 253 253 254 254 254 255 254 255 257 257 258 259 259 262 264 264 265 266 266
235 239 249 250 242 243 242 236 237 245 250 251 250 249 249 250 251 251 251 253 251 249 249 251 252 253 254 254 255 256 256 257 258 258 258 257 258 260 261 261 262 263
238 242 249 248 245 248 248 241 242 248 247 245 247 249 249 249 249 249 249 250 252 250 246 245 247 252 257 257 257 258 259 258 259 260 260 260 260 262 263 261 260 263
240 240 242 243 242 242 242 243 248 249 242 239 243 247 248 249 249 249 249 248 249 250 249 248 248 248 249 251 254 256 256 254 254 256 258 259 259 261 264 265 264 264
240 239 239 239 240 238 236 239 243 243 239 241 249 251 249 250 251 252 251 248 246 246 247 248 249 246 244 246 248 250 252 253 254 257 257 257 256 255 257 260 263 263
238 238 238 238 238 239 238 239 240 240 239 241 248 252 252 251 253 254 252 250 247 244 242 242 245 248 249 250 250 250 251 251 252 255 257 257 256 254 254 257 260 261
240 239 239 239 239 239 240 240 240 242 243 243 242 245 249 252 255 255 253 253 251 248 244 241 243 247 250 251 252 253 254 254 253 254 256 258 259 261 261 261 260 261
239 241 241 241 240 240 241 242 242 244 246 247 244 243 245 249 252 254 254 255 254 252 249 246 246 248 251 252 253 255 256 257 256 255 254 255 258 261 263 263 263 264
235 238 241 243 243 242 242 243 244 245 247 248 248 247 247 247 248 251 255 257 257 256 254 252 251 252 253 255 257 259 259 257 256 257 257 255 256 257 259 262 264 265
233 237 241 245 248 247 246 245 245 246 246 247 249 249 250 250 249 251 255 258 261 262 260 258 257 257 257 257 257 259 261 259 256 256 259 261 262 260 259 259 261 263
234 239 244 248 251 252 251 248 246 245 245 246 249 250 250 250 249 251 255 259 262 264 266 266 265 264 263 261 260 259 260 260 258 257 259 264 266 264 260 259 259 262
236 238 242 245 248 252 254 253 250 248 248 250 254 254 251 249 250 251 254 258 260 263 267 268 267 265 264 264 263 262 261 261 261 261 262 263 264 263 261 260 260 260
246 241 239 238 241 248 255 258 256 254 253 255 256 255 250 250 252 252 253 259 265 267 266 266 265 264 263 263 263 263 263 262 263 264 264 263 262 261 261 261 261 260
262 259 253 248 255 266 270 270 267 263 259 255 254 253 252 251 254 254 254 259 267 269 266 263 261 260 260 261 262 263 264 264 263 264 264 263 263 262 261 261 262 261
Height
5920 5921 5921 5922 5923 5924 5924 5925 5926 5927 5927 5928 5928 5929 5929 5930 5931 5932 5932 5933 5933 5934 5934 5935 5935 5936 5936 5936 5937 5937 5938 5938 5939 5940 5940 5940 5940 5941 5941 5941 5942 5942
5919 5920 5921 5922 5923 5923 5924 5925 5926 5927 5927 5928 5928 5929 5929 5930 5931 5931 5932 5933 5933 5934 5934 5934 5935 5936 5936 5936 5937 5937 5937 5938 5939 5939 5940 5940 5940 5940 5940 5941 5941 5941
5919 5920 5920 5921 5922 5923 5924 5925 5926 5926 5927 5928 5928 5929 5929 5930 5930 5931 5931 5932 5933 5933 5934 5934 5935 5935 5936 5936 5936 5937 5937 5937 5938 5939 5939 5939 5940 5940 5940 5940 5941 5941
5918 5919 5920 5921 5922 5923 5924 5924 5925 5926 5926 5927 5928 5928 5929 5929 5930 5930 5931 5932 5932 5933 5933 5934 5934 5935 5935 5936 5936 5936 5937 5937 5938 5938 5939 5939 5939 5939 5939 5940 5940 5941
5917 5918 5919 5920 5921 5922 5923 5924 5924 5925 5926 5926 5927 5928 5928 5929 5929 5930 5931 5931 5932 5933 5933 5934 5934 5935 5935 5935 5936 5936 5937 5937 5937 5938 5938 5939 5939 5939 5939 5939 5940 5940
5917 5917 5918 5919 5920 5921 5922 5923 5924 5924 5925 5926 5926 5927 5928 5928 5929 5929 5930 5931 5931 5932 5933 5933 5934 5934 5935 5935 5936 5936 5937 5937 5937 5937 5938 5938 5938 5939 5939 5939 5940 5940
5915 5916 5917 5918 5919 5920 5920 5921 5922 5923 5924 5925 5925 5926 5927 5927 5928 5928 5929 5930 5931 5931 5932 5932 5933 5934 5934 5935 5935 5936 5936 5937 5937 5937 5938 5938 5938 5938 5938 5939 5939 5939
5913 5914 5915 5916 5917 5918 5919 5920 5921 5922 5923 5924 5924 5925 5926 5926 5927 5927 5928 5929 5930 5930 5931 5931 5932 5932 5933 5934 5935 5935 5936 5936 5937 5937 5937 5937 5937 5938 5938 5938 5938 5938
5911 5912 5913 5914 5915 5916 5917 5918 5919 5920 5921 5922 5923 5924 5924 5925 5926 5926 5927 5927 5928 5929 5929 5930 5931 5931 5932 5932 5933 5934 5934 5935 5936 5936 5936 5936 5936 5936 5937 5937 5937 5937
5908 5909 5910 5911 5913 5914 5915 5916 5917 5918 5920 5921 5922 5923 5923 5924 5924 5925 5925 5926 5927 5927 5928 5929 5929 5929 5930 5930 5931 5932 5932 5933 5934 5934 5934 5935 5935 5935 5935 5935 5935 5935
5906 5906 5907 5908 5910 5912 5912 5913 5915 5916 5917 5919 5920 5921 5922 5922 5923 5924 5924 5924 5925 5925 5926 5927 5927 5928 5928 5929 5929 5930 5930 5931 5931 5932 5932 5933 5933 5933 5933 5934 5933 5933
5904 5904 5905 5906 5908 5910 5911 5912 5912 5912 5914 5916 5918 5919 5920 5920 5921 5922 5922 5922 5923 5923 5924 5925 5925 5926 5926 5927 5927 5927 5928 5928 5929 5930 5930 5931 5931 5932 5932 5932 5932 5932
5901 5902 5903 5903 5905 5907 5909 5911 5911 5911 5910 5912 5914 5916 5917 5918 5919 5919 5920 5920 5921 5921 5922 5922 5923 5924 5924 5924 5925 5925 5925 5926 5926 5927 5928 5928 5929 5929 5930 5930 5930 5930
5899 5900 5901 5901 5902 5904 5905 5906 5908 5910 5909 5909 5910 5913 5915 5916 5917 5917 5917 5917 5917 5918 5919 5920 5920 5921 5922 5922 5923 5923 5923 5924 5924 5925 5925 5926 5926 5927 5927 5927 5927 5927
5897 5898 5898 5899 5901 5902 5903 5904 5905 5907 5908 5907 5908 5910 5911 5912 5913 5914 5914 5914 5915 5915 5916 5916 5917 5918 5919 5920 5921 5921 5922 5922 5922 5923 5923 5923 5924 5924 5925 5925 5925 5926
5895 5895 5895 5895 5897 5899 5900 5902 5903 5904 5904 5905 5906 5907 5908 5909 5910 5911 5911 5912 5912 5912 5913 5914 5915 5915 5916 5917 5918 5918 5919 5919 5919 5920 5921 5922 5922 5923 5923 5922 5923 5924
5891 5892 5893 5893 5893 5894 5895 5897 5899 5900 5900 5902 5903 5905 5906 5906 5907 5908 5908 5909 5909 5909 5910 5913 5913 5911 5911 5913 5914 5915 5915 5916 5917 5918 5919 5920 5920 5920 5920 5919 5920 5921
5886 5888 5889 5890 5890 5890 5891 5893 5895 5896 5897 5898 5900 5901 5903 5903 5904 5905 5905 5906 5906 5906 5907 5909 5909 5908 5909 5910 5911 5911 5912 5913 5915 5916 5917 5918 5917 5917 5917 5917 5917 5917
5882 5883 5884 5885 5886 5887 5887 5889 5891 5892 5893 5894 5896 5897 5899 5901 5901 5901 5902 5902 5903 5903 5904 5905 5905 5905 5906 5907 5907 5908 5909 5910 5911 5912 5913 5914 5914 5914 5915 5916 5915 5915
5877 5878 5879 5880 5881 5882 5884 5886 5887 5888 5889 5891 5892 5892 5893 5895 5897 5898 5898 5898 5898 5899 5899 5900 5902 5902 5903 5903 5904 5905 5906 5907 5908 5908 5909 5911 5911 5911 5912 5912 5912 5912
5872 5873 5874 5875 5877 5878 5880 5882 5884 5884 5885 5886 5888 5888 5888 5889 5892 5894 5895 5894 5894 5895 5895 5896 5898 5899 5900 5900 5901 5901 5902 5903 5903 5904 5905 5907 5907 5907 5907 5908 5908 5908
5867 5869 5870 5872 5874 5875 5876 5878 5879 5880 5881 5882 5883 5884 5885 5886 5888 5889 5890 5890 5890 5891 5890 5893 5896 5897 5897 5897 5898 5898 5898 5898 5899 5900 5901 5902 5903 5903 5903 5903 5903 5904
5863 5865 5867 5869 5870 5870 5872 5874 5875 5876 5877 5877 5878 5879 5881 5883 5884 5885 5886 5887 5887 5886 5886 5889 5893 5894 5893 5894 5894 5894 5894 5894 5894 5895 5896 5897 5898 5898 5898 5898 5898 5898
5859 5861 5862 5864 5865 5866 5867 5868 5870 5871 5872 5873 5874 5875 5877 5878 5880 5881 5883 5884 5883 5882 5883 5886 5888 5888 5888 5888 5888 5888 5889 5888 5889 5890 5891 5892 5892 5892 5893 5893 5894 5894
5857 5858 5859 5860 5861 5862 5863 5864 5865 5866 5867 5868 5869 5871 5872 5874 5876 5877 5878 5879 5880 5879 5879 5881 5882 5882 5883 5883 5882 5882 5882 5882 5883 5884 5885 5886 5886 5886 5887 5887 5888 5889
5855 5856 5857 5857 5858 5859 5860 5861 5861 5862 5862 5863 5864 5866 5868 5870 5872 5873 5875 5875 5875 5874 5873 5874 5875 5876 5877 5877 5877 5877 5877 5876 5877 5878 5879 5880 5880 5880 5880 5881 5882 5884